This is the latest recevied weather packets stored in our database for station/object K7TSD. If no packets are shown the sender has not sent any weather packets the latest 10 day(s).
| Time | Temp. | Humidity | Pressure | Rain* | Wind** | Luminosity | Snow |
|---|---|---|---|---|---|---|---|
| 1778114899 | 10.56° C | 47% | 1009.4 hPa | 0 mm | - | 147 W/m² | - |
| 1778114595 | 10° C | 45% | 1009.8 hPa | 0 mm | - | 161 W/m² | - |
| 1778114293 | 10.56° C | 45% | 1009.9 hPa | 0 mm | - | 201 W/m² | - |
| 1778113987 | 10° C | 43% | 1009.6 hPa | 0 mm | - | 224 W/m² | - |
| 1778113678 | 10° C | 43% | 1009.8 hPa | 0 mm | - | 239 W/m² | - |
| 1778113373 | 10° C | 43% | 1009.6 hPa | 0 mm | - | 278 W/m² | - |
| 1778113071 | 10.56° C | 42% | 1009.6 hPa | 0 mm | - | 201 W/m² | - |
| 1778112768 | 11.11° C | 42% | 1010 hPa | 0 mm | - | 272 W/m² | - |
| 1778112464 | 11.11° C | 42% | 1009.9 hPa | 0 mm | - | 242 W/m² | - |
| 1778112161 | 11.11° C | 43% | 1009.9 hPa | 0 mm | - | 255 W/m² | - |
| 1778111857 | 11.11° C | 43% | 1010 hPa | 0 mm | - | 321 W/m² | - |
| 1778111553 | 11.11° C | 43% | 1010.2 hPa | 0 mm | - | 317 W/m² | - |
| 1778111250 | 11.67° C | 43% | 1010.3 hPa | 0 mm | - | 347 W/m² | - |
| 1778110948 | 11.11° C | 44% | 1010.2 hPa | 0 mm | - | 367 W/m² | - |
| 1778110645 | 11.11° C | 43% | 1010 hPa | 0 mm | - | 230 W/m² | - |
| 1778110341 | 10.56° C | 44% | 1009.8 hPa | 0 mm | - | 225 W/m² | - |
| 1778110038 | 10.56° C | 44% | 1010.2 hPa | 0 mm | - | 192 W/m² | - |
| 1778109738 | 10.56° C | 45% | 1010.4 hPa | 0 mm | - | 308 W/m² | - |
| 1778109435 | 10° C | 45% | 1010.2 hPa | 0 mm | - | 314 W/m² | - |
| 1778109134 | 10° C | 45% | 1010.6 hPa | 0 mm | - | 281 W/m² | - |
| 1778108830 | 10° C | 45% | 1010.2 hPa | 0 mm | - | 301 W/m² | - |
| 1778108527 | 9.44° C | 43% | 1010.4 hPa | 0 mm | - | 396 W/m² | - |
| 1778108224 | 10.56° C | 44% | 1010.4 hPa | 0 mm | - | 422 W/m² | - |
| 1778107921 | 10.56° C | 44% | 1010.3 hPa | 0 mm | - | 324 W/m² | - |
| 1778107617 | 10° C | 45% | 1010.6 hPa | 0 mm | - | 476 W/m² | - |
* Rain latest hour (hover to see other rain measurements)
** Current wind speed in m/s (hover to see current wind gust speed)